Find MKA-N 2

NORAD ID: 42836 Int'l Des: NNA 2017-042 Owner: ROSK Country: RU operational
LEOCIRCULARRETROGRADESSO

Live Position

Loading 3D Globe...

About MKA-N 2

Description loading...

Upcoming Passes

Passes for default location (London). Set your location on the main map for personalized predictions.

Altitude History

Loading altitude history...

Two-Line Element Set

1 42836U 17042M 26104.43823918 .00002289 00000-0 15097-3 0 9994
2 42836 97.4193 268.5309 0003160 336.7685 23.3400 15.08425769477400
Epoch: Apr 14, 2026 • Age: 13 hours

Current Status

Altitude 545.0 km
Velocity 7.59 km/s
Sub-Earth Point -14.68°S, 80.01°E
Launch Date Jul 14, 2017
Age 8.7 years
Type other

Technical Details

Classification Payload
Mass 10.00 kg
Dry Mass 10.00 kg
Total Mass 10.00 kg
Length 0.30 m
Diameter 0.20 m
Span 0.40 m
Shape Box+2 pan
Manufacturer DAUR
Bus Type Cubesat 6U
Phase Status In Orbit
Owner/State ROSK/RU

Most Searched